Weather History for Glenwood, MN

Change the Weather History Date:

Friday, September 30, 2011

  Actual Average Record
Temperature  
Mean Temperature 50 °F -  
Max Temperature 62 °F 68 °F 83 °F (1952)
Min Temperature 39 °F 40 °F 27 °F (1956)
Degree Days  
Heating Degree Days 14    
Moisture  
Dew Point 34 °F    
Average Humidity 57    
Maximum Humidity 87    
Minimum Humidity 24    
Precipitation  
Precipitation 0.00 in - - ()
Sea Level Pressure  
Sea Level Pressure 30.24 in    
Wind  
Wind Speed 8 mph (North)    
Max Wind Speed 13 mph    
Max Gust Speed -    
Visibility 10 miles    
Events      
Averages and records for this station are not official NWS values.
T = Trace of Precipitation, MM = Missing Value Source: NWS Daily Summary

Daily Weather History Graph

Daily Weather History Graph

Search for Another Location

Airport:

Trip Planner

Search our weather history database for the weather conditions in past years. The results will help you decide how hot, cold, wet, or windy it might be!

Date:

Astronomy

Sep. 30, 2011 Rise Set
Actual Time 7:17 AM CDT 7:03 PM CDT
Civil Twilight 6:48 AM CDT 7:33 PM CDT
Nautical Twilight 6:13 AM CDT 8:07 PM CDT
Astronomical Twilight 5:38 AM CDT 8:42 PM CDT
Moon 11:33 AM CDT (9/30) 8:49 PM CDT (9/30)
Length of Visible Light 12h 44m
Length of Day
11h 45m
Waxing Crescent, 15% of the Moon is Illuminated
Sep 30
Waxing Crescent
Oct 3
First Quarter
Oct 11
Full
Oct 19
Last Quarter
Oct 26
New

Hourly Weather History & Observations

Time (CDT) Temp. Windchill Dew Point Humidity Pressure Visibility Wind Dir Wind Speed Gust Speed Precip Events Conditions
12:13 AM 50.0 °F - 39.2 °F 66% 30.19 in 10.0 mi NNW 10.4 mph - N/A   Clear
12:34 AM 50.0 °F - 39.2 °F 66% 30.20 in 10.0 mi NNW 11.5 mph - N/A   Clear
12:54 AM 50.0 °F - 39.2 °F 66% 30.20 in 10.0 mi NNW 12.7 mph - N/A   Clear
1:14 AM 48.2 °F - 39.2 °F 71% 30.21 in 10.0 mi NNW 10.4 mph - N/A   Clear
1:34 AM 48.2 °F - 39.2 °F 71% 30.21 in 10.0 mi NNW 9.2 mph - N/A   Clear
1:54 AM 48.2 °F - 39.2 °F 71% 30.22 in 10.0 mi NNW 9.2 mph - N/A   Clear
2:14 AM 46.4 °F 42.4 °F 39.2 °F 76% 30.23 in 10.0 mi NW 8.1 mph - N/A   Clear
2:34 AM 46.4 °F 42.4 °F 39.2 °F 76% 30.23 in 10.0 mi NW 8.1 mph - N/A   Clear
2:53 AM 44.6 °F 40.7 °F 39.2 °F 81% 30.23 in 10.0 mi NW 6.9 mph - N/A   Clear
3:14 AM 46.4 °F 41.5 °F 39.2 °F 76% 30.23 in 10.0 mi NNW 10.4 mph - N/A   Clear
3:33 AM 46.4 °F 42.4 °F 39.2 °F 76% 30.23 in 10.0 mi NNW 8.1 mph - N/A   Clear
3:54 AM 44.6 °F 40.7 °F 37.4 °F 76% 30.23 in 10.0 mi NNW 6.9 mph - N/A   Clear
4:14 AM 44.6 °F 40.2 °F 37.4 °F 76% 30.23 in 10.0 mi NW 8.1 mph - N/A   Clear
4:53 AM 42.8 °F 38.6 °F 37.4 °F 81% 30.23 in 10.0 mi NW 6.9 mph - N/A   Clear
5:14 AM 41.0 °F 36.4 °F 37.4 °F 87% 30.23 in 10.0 mi NW 6.9 mph - N/A   Clear
5:33 AM 42.8 °F 39.3 °F 37.4 °F 81% 30.24 in 10.0 mi NW 5.8 mph - N/A   Clear
5:54 AM 39.2 °F 34.2 °F 35.6 °F 87% 30.24 in 10.0 mi NW 6.9 mph - N/A   Clear
6:14 AM 39.2 °F 35.0 °F 35.6 °F 87% 30.24 in 10.0 mi NW 5.8 mph - N/A   Clear
6:33 AM 39.2 °F 35.0 °F 35.6 °F 87% 30.24 in 10.0 mi NW 5.8 mph - N/A   Clear
6:54 AM 39.2 °F 35.0 °F 35.6 °F 87% 30.24 in 10.0 mi NW 5.8 mph - N/A   Clear
7:14 AM 39.2 °F 35.0 °F 35.6 °F 87% 30.24 in 10.0 mi NW 5.8 mph - N/A   Clear
7:34 AM 39.2 °F 35.9 °F 35.6 °F 87% 30.25 in 10.0 mi NW 4.6 mph - N/A   Clear
8:14 AM 42.8 °F 39.3 °F 39.2 °F 87% 30.26 in 10.0 mi NW 5.8 mph - N/A   Clear
8:33 AM 44.6 °F 41.4 °F 39.2 °F 81% 30.26 in 10.0 mi NNW 5.8 mph - N/A   Clear
8:54 AM 46.4 °F 41.9 °F 39.2 °F 76% 30.27 in 10.0 mi NNW 9.2 mph - N/A   Clear
9:13 AM 46.4 °F 41.9 °F 39.2 °F 76% 30.27 in 10.0 mi North 9.2 mph - N/A   Clear
9:34 AM 48.2 °F - 41.0 °F 76% 30.27 in 10.0 mi NNW 5.8 mph - N/A   Clear
9:54 AM 50.0 °F - 39.2 °F 66% 30.28 in 10.0 mi North 9.2 mph - N/A   Clear
10:14 AM 48.2 °F - 39.2 °F 71% 30.28 in 10.0 mi North 8.1 mph - N/A   Scattered Clouds
10:33 AM 50.0 °F - 37.4 °F 62% 30.29 in 10.0 mi North 9.2 mph - N/A   Clear
10:54 AM 51.8 °F - 35.6 °F 54% 30.29 in 10.0 mi North 8.1 mph - N/A   Clear
11:14 AM 51.8 °F - 33.8 °F 50% 30.29 in 10.0 mi North 8.1 mph - N/A   Clear
11:34 AM 53.6 °F - 33.8 °F 47% 30.29 in 10.0 mi North 4.6 mph - N/A   Clear
11:54 AM 55.4 °F - 32.0 °F 41% 30.29 in 10.0 mi NNW 9.2 mph - N/A   Clear
12:14 PM 55.4 °F - 30.2 °F 38% 30.28 in 10.0 mi North 8.1 mph - N/A   Clear
12:34 PM 55.4 °F - 30.2 °F 38% 30.28 in 10.0 mi North 6.9 mph - N/A   Clear
1:14 PM 57.2 °F - 32.0 °F 38% 30.27 in 10.0 mi North 9.2 mph - N/A   Clear
1:33 PM 57.2 °F - 30.2 °F 36% 30.27 in 10.0 mi NNE 5.8 mph - N/A   Clear
1:54 PM 59.0 °F - 30.2 °F 34% 30.26 in 10.0 mi North 6.9 mph - N/A   Clear
2:14 PM 60.8 °F - 32.0 °F 34% 30.25 in 10.0 mi North 8.1 mph - N/A   Clear
2:34 PM 60.8 °F - 30.2 °F 31% 30.24 in 10.0 mi NE 8.1 mph - N/A   Clear
2:54 PM 60.8 °F - 28.4 °F 29% 30.24 in 10.0 mi North 6.9 mph - N/A   Clear
3:14 PM 60.8 °F - 26.6 °F 27% 30.24 in 10.0 mi ENE 4.6 mph - N/A   Clear
3:34 PM 60.8 °F - 28.4 °F 29% 30.24 in 10.0 mi NNE 4.6 mph - N/A   Clear
3:54 PM 62.6 °F - 26.6 °F 26% 30.23 in 10.0 mi North 4.6 mph - N/A   Clear
4:14 PM 62.6 °F - 24.8 °F 24% 30.23 in 10.0 mi North 5.8 mph - N/A   Clear
4:33 PM 62.6 °F - 26.6 °F 26% 30.22 in 10.0 mi ENE 6.9 mph - N/A   Clear
4:54 PM 62.6 °F - 26.6 °F 26% 30.22 in 10.0 mi NNE 5.8 mph - N/A   Clear
5:14 PM 60.8 °F - 26.6 °F 27% 30.22 in 10.0 mi NE 4.6 mph - N/A   Clear
5:34 PM 60.8 °F - 26.6 °F 27% 30.21 in 10.0 mi NNE 4.6 mph - N/A   Clear
5:54 PM 60.8 °F - 26.6 °F 27% 30.21 in 10.0 mi NNE 4.6 mph - N/A   Clear
6:13 PM 59.0 °F - 26.6 °F 29% 30.21 in 10.0 mi East 4.6 mph - N/A   Clear
6:34 PM 57.2 °F - 28.4 °F 33% 30.22 in 10.0 mi ENE 4.6 mph - N/A   Clear
6:54 PM 53.6 °F - 28.4 °F 38% 30.22 in 10.0 mi NE 4.6 mph - N/A   Clear
7:14 PM 53.6 °F - 28.4 °F 38% 30.22 in 10.0 mi ENE 3.5 mph - N/A   Clear
7:34 PM 50.0 °F - 30.2 °F 47% 30.22 in 5.0 mi ENE 4.6 mph - N/A   Haze
7:54 PM 51.8 °F - 32.0 °F 47% 30.22 in 10.0 mi ENE 4.6 mph - N/A   Clear
8:14 PM 48.2 °F - 30.2 °F 50% 30.22 in 10.0 mi ENE 4.6 mph - N/A   Clear
8:34 PM 46.4 °F 42.9 °F 30.2 °F 53% 30.23 in 10.0 mi East 6.9 mph - N/A   Clear
8:54 PM 44.6 °F 40.7 °F 30.2 °F 57% 30.24 in 10.0 mi East 6.9 mph - N/A   Clear
9:14 PM 44.6 °F 41.4 °F 30.2 °F 57% 30.25 in 10.0 mi East 5.8 mph - N/A   Clear
9:34 PM 42.8 °F 39.3 °F 30.2 °F 61% 30.24 in 10.0 mi East 5.8 mph - N/A   Clear
9:54 PM 42.8 °F 39.3 °F 30.2 °F 61% 30.25 in 10.0 mi East 5.8 mph - N/A   Clear
10:13 PM 42.8 °F 40.1 °F 30.2 °F 61% 30.25 in 10.0 mi East 4.6 mph - N/A   Clear
10:33 PM 42.8 °F 39.3 °F 30.2 °F 61% 30.26 in 10.0 mi ESE 5.8 mph - N/A   Clear
10:54 PM 41.0 °F 37.1 °F 30.2 °F 65% 30.26 in 10.0 mi ESE 5.8 mph - N/A   Clear
11:14 PM 41.0 °F 37.1 °F 30.2 °F 65% 30.25 in 10.0 mi ESE 5.8 mph - N/A   Clear
11:34 PM 39.2 °F 35.0 °F 30.2 °F 70% 30.25 in 10.0 mi ESE 5.8 mph - N/A   Clear
11:54 PM 39.2 °F 35.0 °F 30.2 °F 70% 30.25 in 10.0 mi ESE 5.8 mph - N/A   Clear